Probability
3 3 3 3 3 3 2 1 1 2 2 2 1 0 1 2 2 1 0 0 0 0 0 0 0 0 0 0 0 0 0 0 0 0 0 0 0 0 0 0 0 0 0
2 3 3 3 3 3 2 1 0 1 1 2 1 1 1 2 2 2 1 0 0 0 0 0 0 0 0 0 0 0 0 0 0 0 0 0 0 0 0 0 0 0 0
1 2 3 3 3 3 2 1 0 0 0 1 1 1 2 2 2 2 2 2 1 0 0 0 0 0 0 0 0 0 0 0 0 0 0 0 0 0 0 0 0 0 0
2 3 3 3 3 4 3 1 0 0 0 0 0 1 2 2 1 2 3 3 3 1 0 0 0 0 0 0 0 0 0 0 0 0 0 0 0 0 0 0 0 0 0
3 3 3 3 4 4 3 1 0 0 0 0 0 0 1 1 2 2 2 3 4 3 1 1 1 0 0 0 0 1 1 1 1 0 0 0 0 0 0 0 0 0 0
3 3 3 3 4 5 4 2 1 0 0 0 0 0 0 0 1 2 2 2 3 3 3 2 2 1 0 0 2 4 3 2 1 0 0 0 0 0 0 0 0 0 0
3 3 3 3 4 5 5 3 1 1 1 1 0 0 0 0 0 1 1 2 2 3 3 4 3 2 1 1 4 6 5 2 0 0 0 0 0 0 0 0 0 0 0
3 3 3 3 4 5 5 4 3 2 2 1 0 0 0 0 0 1 1 2 3 3 3 4 4 4 3 4 6 6 4 1 0 0 0 0 0 0 0 0 0 0 0
3 3 3 3 3 4 4 4 4 3 2 1 0 0 0 0 0 1 2 2 3 3 2 2 4 6 6 7 7 6 3 1 0 1 0 0 0 0 0 0 0 0 0
3 3 3 3 2 3 3 4 3 3 1 0 0 0 0 0 0 1 1 1 2 3 2 1 2 6 7 7 7 4 1 0 0 0 0 0 0 0 0 0 0 0 0
4 3 3 1 1 1 3 3 3 2 1 1 1 0 0 0 0 0 0 1 2 2 1 0 1 3 5 5 4 2 1 1 0 0 0 0 0 0 0 0 0 0 0
4 4 3 1 0 1 2 3 3 3 2 2 1 0 0 0 0 0 0 0 1 1 0 0 0 1 3 3 3 2 2 1 1 1 1 0 0 0 0 0 0 0 0
4 3 2 2 1 1 1 2 2 3 3 2 1 0 0 0 1 1 0 0 0 0 0 0 0 0 2 3 3 3 3 2 1 1 1 0 0 0 0 0 0 0 0
4 2 2 2 2 1 0 0 1 2 3 1 0 0 0 0 1 2 1 0 0 0 1 1 1 0 1 3 3 3 3 3 2 1 0 0 0 0 0 0 0 0 0
5 3 1 2 2 1 0 0 0 1 1 0 0 0 0 0 1 1 1 0 1 1 1 1 1 0 1 2 3 3 3 3 1 0 0 0 0 0 0 0 0 0 0
6 5 2 1 2 2 1 0 0 0 0 0 0 0 0 0 0 0 0 0 1 1 1 0 1 1 1 1 3 3 3 2 1 0 0 0 0 0 0 1 0 0 0
5 5 3 2 2 3 2 1 0 0 0 0 0 0 0 0 0 0 0 0 1 1 1 0 1 2 2 1 2 3 3 3 1 0 0 0 0 0 0 0 0 0 1
2 3 2 2 2 2 2 1 0 0 0 0 0 0 0 0 0 0 0 0 0 0 0 0 2 3 2 1 2 3 4 3 2 0 0 0 1 0 0 0 0 0 1
1 1 1 1 1 1 1 1 0 0 0 0 0 0 0 0 0 0 0 0 0 0 0 0 2 3 2 1 1 3 4 3 1 0 0 0 0 0 0 0 0 0 1
2 1 0 0 0 0 0 0 0 0 0 0 0 0 0 0 0 0 0 0 0 0 0 1 2 2 1 0 1 3 4 3 2 0 0 0 0 0 1 1 1 1 1
3 2 0 0 0 0 0 0 0 0 0 0 0 0 0 0 0 0 0 0 0 0 0 1 2 2 1 0 1 2 4 4 3 1 0 0 0 0 0 1 1 2 2
3 2 1 1 2 1 1 1 0 0 0 0 0 0 0 0 0 0 0 0 0 0 0 0 1 1 0 0 1 2 3 4 3 1 0 0 0 0 0 0 1 1 2
3 2 2 2 3 3 2 2 1 0 0 0 0 0 0 0 0 0 0 0 0 0 0 0 0 0 0 0 1 2 3 3 2 1 0 0 0 0 0 0 0 1 1
3 3 3 3 3 3 3 2 1 0 0 0 0 0 0 0 0 0 0 0 0 0 0 0 0 0 0 0 0 1 2 3 3 1 0 0 0 0 0 0 1 2 2
3 3 3 3 3 3 3 1 0 0 0 0 0 0 0 0 0 0 0 0 0 0 0 0 0 0 0 0 0 0 1 2 3 2 1 0 0 0 0 0 1 2 3
2 3 3 3 3 3 2 1 0 0 0 0 0 0 0 0 0 0 0 0 0 0 0 0 0 0 0 0 0 0 0 1 3 2 1 0 0 0 0 0 0 1 3
Wind_Speed
2 2 4 4 6 7 8 9 9 9 9 10 9 9 9 9 9 8 7 7 7 7 8 9 9 10 11 11 12 12 13 13 13 13 13 12 13 14 13 11 10 12 15
2 2 3 4 6 7 8 9 10 10 10 10 9 9 10 9 9 8 8 7 7 7 7 8 9 10 10 11 11 12 13 12 12 12 10 11 11 12 13 11 11 11 14
3 3 3 5 6 7 8 9 9 10 10 10 9 9 9 10 9 8 8 7 7 7 7 8 8 9 10 10 11 12 12 12 11 8 6 9 11 12 12 12 13 13 13
3 3 3 6 7 8 8 9 9 10 10 10 10 9 9 9 10 9 9 8 7 7 7 7 8 8 9 10 11 11 11 11 9 5 5 8 9 11 12 12 12 13 13
3 3 4 6 7 8 8 8 8 9 9 9 10 10 9 9 9 10 10 9 8 7 7 7 7 7 8 9 10 11 11 10 7 5 7 7 8 11 11 11 12 12 12
3 3 4 5 6 7 8 7 8 8 9 9 9 9 9 9 9 9 9 9 9 8 6 7 7 7 8 9 10 10 10 8 6 6 6 7 7 10 11 11 11 11 11
3 3 4 5 6 7 7 7 7 8 8 8 8 8 8 8 9 8 8 8 8 8 7 6 6 7 8 9 10 9 8 5 5 6 6 6 8 10 10 10 11 11 11
3 3 4 5 6 6 7 7 7 7 8 8 8 8 8 8 8 8 7 7 7 7 7 6 6 6 7 9 9 9 7 3 5 6 6 6 8 9 10 9 10 10 10
3 3 3 4 4 6 6 7 7 7 8 8 8 8 8 7 7 7 7 7 6 7 7 6 6 6 7 8 8 8 6 2 4 4 5 5 6 8 9 9 9 9 10
3 3 3 4 4 3 4 6 7 7 7 7 7 8 7 6 6 6 6 6 6 5 6 6 6 5 6 7 7 7 5 3 5 5 3 5 6 7 8 8 8 8 9
2 2 2 3 3 3 3 4 5 6 6 5 5 6 4 3 3 3 6 6 6 5 5 5 5 5 5 5 6 5 4 3 4 3 3 5 5 6 7 8 7 8 8
2 1 1 2 2 2 2 2 2 2 2 2 2 2 2 2 2 3 5 6 5 5 5 4 4 3 2 3 4 3 3 3 3 3 3 5 4 5 6 7 7 8 8
2 1 1 1 1 1 1 1 1 1 1 1 2 2 1 1 1 1 1 2 2 2 2 2 1 2 2 2 3 3 2 2 2 2 3 4 4 5 6 7 7 7 8
3 2 1 1 0 1 1 1 1 1 1 1 1 1 1 0 1 1 1 1 1 0 0 0 0 1 2 3 3 4 3 2 2 2 3 4 3 4 6 6 6 7 7
3 2 1 0 0 1 1 1 1 1 1 1 1 1 1 0 0 1 1 1 1 0 0 0 0 1 1 2 3 3 3 3 2 2 3 4 3 3 4 6 6 7 7
3 2 1 0 0 0 0 0 1 1 1 1 1 1 1 1 1 1 1 1 1 1 1 1 1 1 1 1 2 3 3 3 2 2 2 3 4 3 3 5 6 6 7
3 2 2 1 0 1 0 0 1 1 1 1 1 1 2 1 1 1 1 1 1 1 1 1 1 1 1 2 2 2 2 3 2 2 2 2 3 3 3 4 5 5 6
3 2 2 1 1 1 1 1 1 1 1 1 1 1 2 2 2 2 1 1 1 1 1 1 1 1 1 1 1 2 2 2 3 3 2 2 2 2 3 3 4 4 5
3 2 2 1 1 1 1 1 1 1 1 1 1 1 2 2 2 2 2 1 2 1 1 1 2 1 2 2 2 1 1 2 3 3 3 3 2 2 2 3 4 3 3
2 2 2 1 1 1 1 1 1 1 1 1 1 2 2 2 2 2 2 2 2 2 1 2 2 2 2 2 2 1 1 2 2 3 3 3 2 3 3 3 3 3 2
2 2 2 2 1 1 1 1 1 2 2 2 2 2 2 2 2 3 2 2 2 2 2 2 2 3 2 2 2 2 1 1 2 2 2 3 3 3 3 3 2 2 2
2 2 2 2 2 2 2 2 2 2 2 2 2 2 2 2 3 3 3 2 3 3 3 2 3 2 2 2 2 2 3 3 2 2 2 2 3 3 3 3 3 2 2
2 2 2 3 3 2 2 1 1 2 2 2 3 2 3 3 3 3 3 3 3 3 3 3 3 3 3 2 2 2 2 3 2 2 3 3 3 3 3 3 3 3 3
3 3 3 3 3 3 3 3 4 3 4 4 3 3 3 4 4 4 4 4 4 4 4 4 4 4 4 3 3 2 1 0 2 2 3 3 3 4 3 3 3 3 3
3 3 3 3 3 3 3 4 4 4 4 3 3 4 4 4 4 4 4 4 5 4 5 4 4 4 4 4 3 2 3 2 2 2 3 3 3 3 3 4 3 3 4
2 2 2 3 3 3 4 4 5 5 5 5 5 5 4 3 4 5 5 4 5 5 5 5 5 6 5 5 4 3 3 3 3 3 3 4 3 3 3 3 3 3 3
Wind_Direction
76 32 360 15 49 52 53 57 60 60 60 59 60 60 61 61 64 69 77 84 93 98 99 100 102 102 100 99 98 97 95 92 89 87 87 86 87 89 88 88 92 89 86
83 52 20 32 55 58 56 56 58 57 58 58 58 58 57 58 60 61 68 77 84 91 99 102 104 104 101 101 101 99 96 94 92 89 91 92 87 89 88 79 73 87 89
89 65 67 50 59 64 60 58 59 58 58 57 55 57 55 55 56 58 61 68 78 82 88 96 102 104 103 102 102 101 98 97 94 94 107 103 96 91 91 88 86 90 90
93 78 66 58 59 63 63 59 59 58 56 56 55 53 53 53 54 55 56 58 66 76 85 91 97 103 105 105 104 103 102 100 96 106 106 98 99 94 93 92 92 91 91
96 85 75 60 61 60 62 62 62 58 54 53 52 51 50 50 52 54 52 51 54 65 81 93 95 101 105 106 106 106 106 105 105 111 98 98 98 98 96 95 94 93 92
95 86 83 65 64 62 60 62 64 60 55 52 50 49 48 47 47 49 48 49 50 57 76 90 96 103 104 108 111 110 110 113 130 107 103 103 103 103 100 99 98 97 95
95 78 87 70 67 67 62 60 61 61 58 54 50 48 47 46 43 43 45 48 49 55 69 86 95 103 109 111 112 111 109 110 122 111 108 104 102 106 105 102 101 101 99
96 82 83 75 67 63 60 57 57 57 54 51 48 44 43 44 41 39 41 44 48 54 61 77 91 100 110 113 112 110 105 113 120 114 111 106 99 109 109 105 102 102 101
91 85 74 70 72 66 60 54 51 52 52 48 45 40 37 37 37 39 39 41 46 54 58 68 79 95 105 112 115 113 107 99 122 116 115 110 103 115 114 111 110 108 106
88 80 74 65 60 58 68 59 51 49 51 48 42 34 29 31 33 34 33 38 41 51 56 62 74 86 101 107 113 117 123 154 127 121 118 107 105 120 121 118 116 114 111
93 74 68 60 59 52 53 62 60 56 54 50 48 37 24 33 37 32 34 30 39 46 53 60 74 80 101 109 109 118 148 150 131 119 112 99 117 125 125 125 123 119 114
155 100 74 60 54 55 49 54 64 65 60 51 53 42 24 20 21 23 32 29 33 45 51 55 69 106 133 137 128 146 152 149 132 124 103 100 123 130 128 130 130 124 120
173 146 84 54 49 52 44 35 30 38 49 37 41 35 22 20 9 16 27 36 42 54 67 77 118 140 140 136 144 148 143 141 132 125 109 102 122 131 131 132 133 131 127
180 179 123 67 63 59 47 39 31 18 30 25 19 18 4 9 342 353 347 349 348 26 35 91 127 135 138 146 149 146 146 139 128 117 100 92 109 133 139 141 140 137 134
187 184 177 192 111 60 36 11 15 4 5 360 342 317 311 272 293 320 318 325 317 307 260 245 205 158 148 148 152 151 153 151 139 136 114 90 88 109 137 146 144 139 138
194 187 181 190 140 117 0 333 342 342 347 331 320 309 283 268 251 264 286 293 282 274 256 244 229 196 182 156 155 161 162 156 154 148 137 120 94 88 117 142 143 142 140
197 192 191 196 196 204 241 256 289 291 295 305 315 306 284 260 247 240 246 249 267 274 253 231 219 209 185 170 164 167 164 162 155 161 156 155 143 109 99 130 136 139 142
195 195 195 195 229 235 256 263 270 279 281 301 302 296 288 262 249 238 233 237 248 249 249 226 216 213 199 188 175 175 176 174 170 167 164 164 166 161 137 114 117 129 136
199 195 194 197 223 252 264 259 259 265 277 287 288 286 303 277 245 238 228 228 230 236 241 235 217 211 205 204 188 184 185 187 176 171 171 169 174 175 166 135 125 121 135
196 197 206 204 224 246 236 231 243 251 271 272 277 287 287 290 257 233 221 220 229 228 231 228 216 203 207 203 196 181 178 191 185 178 179 177 180 183 181 177 165 145 133
189 203 217 219 228 239 247 239 244 249 261 266 266 274 279 284 280 238 225 217 228 229 231 225 216 194 191 192 189 172 164 174 180 182 182 182 181 188 184 185 181 179 172
201 216 228 230 229 236 251 257 256 260 264 265 266 264 267 269 274 252 223 221 226 227 223 223 215 201 192 204 199 183 187 185 189 194 187 196 191 191 189 187 188 191 193
219 224 235 240 243 245 241 241 240 244 257 258 260 263 264 261 262 257 239 226 223 225 223 224 220 209 195 203 214 214 207 198 174 182 192 197 199 198 199 198 197 197 196
239 236 240 239 243 244 231 226 229 235 243 253 254 255 258 253 252 252 239 231 221 225 229 226 223 219 204 202 204 228 262 207 194 178 182 192 206 209 207 203 205 200 200
243 244 244 245 247 249 247 237 240 242 247 250 247 244 248 245 245 247 240 235 226 223 227 226 228 219 213 210 205 206 204 213 227 218 198 186 198 210 211 208 206 205 202
243 248 252 251 258 260 254 247 245 247 245 245 244 240 241 241 237 240 236 232 231 227 227 226 226 221 219 218 212 211 204 200 203 210 215 202 203 206 209 208 209 209 203